Starlink 30517

operational
NORAD ID: 57995 Int'l Des: 2023-153 Owner: SPXS Country: US Constellation: starlink
LEOCIRCULAR

About Starlink 30517

Description loading...

Live Position

Loading 3D Globe...

Upcoming Passes

Altitude History

Altitude vs Time

uPlot chart will show altitude changes over time

Two-Line Element Set

1 57995U 23153E 25303.65254100 .00000415 00000-0 45791-4 0 9995
2 57995 43.0026 55.4852 0001933 274.9509 85.1113 15.02533899115318
Epoch: Oct 30, 2025 • Age: 25 hours

Current Status

Altitude 568.1 km
Velocity 7.58 km/s
Sub-Earth Point -35.69°S, 65.57°E
Launch Date Oct 5, 2023
Age 2 years
Type internet

Technical Details

Classification Payload
Mass 730.00 kg
Dry Mass 700.00 kg
Total Mass 730.00 kg
Length 0.30 m
Diameter 4.10 m
Span 29.00 m
Shape Box + pan
Manufacturer SPXS
Bus Type Starlink V2M
Phase Status In Orbit
Owner/State SPXS/US

Large Constellations

Loading constellations...